Time,TemperatureF,DewpointF,PressureIn,WindDirection,WindDirectionDegrees,WindSpeedMPH,WindSpeedGustMPH,Humidity,HourlyPrecipIn,Conditions,Clouds,dailyrainin,SoftwareType,DateUTC
2013-02-28 00:00:00,42.5,13.9,27.54,ENE,68,0.9,1.1,31,0.00,,,0.00,WUHU216HW,2013-02-28 07:00:00,
2013-02-28 00:05:00,42.1,13.0,27.54,East,90,1.1,1.1,30,0.00,,,0.00,WUHU216HW,2013-02-28 07:05:00,
2013-02-28 00:10:00,41.9,13.4,27.55,East,90,0.9,1.1,31,0.00,,,0.00,WUHU216HW,2013-02-28 07:10:00,
2013-02-28 00:15:00,41.6,13.1,27.55,ESE,113,0.0,1.1,31,0.00,,,0.00,WUHU216HW,2013-02-28 07:15:00,
2013-02-28 00:20:00,41.4,13.0,27.54,ESE,113,0.4,0.9,31,0.00,,,0.00,WUHU216HW,2013-02-28 07:20:00,
2013-02-28 00:25:00,41.4,13.7,27.54,ESE,113,0.7,1.8,32,0.00,,,0.00,WUHU216HW,2013-02-28 07:25:00,
2013-02-28 00:30:00,41.0,13.3,27.54,ENE,68,2.0,2.0,32,0.00,,,0.00,WUHU216HW,2013-02-28 07:30:00,
2013-02-28 00:35:00,40.9,13.2,27.54,ENE,68,0.7,2.0,32,0.00,,,0.00,WUHU216HW,2013-02-28 07:35:00,
2013-02-28 00:40:00,40.7,13.7,27.54,ENE,68,0.9,2.0,33,0.00,,,0.00,WUHU216HW,2013-02-28 07:40:00,
2013-02-28 00:45:00,40.5,13.5,27.54,ESE,113,1.3,2.0,33,0.00,,,0.00,WUHU216HW,2013-02-28 07:45:00,
2013-02-28 00:50:00,40.3,13.3,27.53,East,90,0.2,1.8,33,0.00,,,0.00,WUHU216HW,2013-02-28 07:50:00,
2013-02-28 00:55:00,40.3,13.3,27.53,ESE,113,0.4,1.3,33,0.00,,,0.00,WUHU216HW,2013-02-28 07:55:00,
2013-02-28 01:00:00,40.3,13.3,27.53,ESE,113,1.3,1.3,33,0.00,,,0.00,WUHU216HW,2013-02-28 08:00:00,
2013-02-28 01:05:00,40.3,13.3,27.53,SE,135,0.7,1.3,33,0.00,,,0.00,WUHU216HW,2013-02-28 08:05:00,
2013-02-28 01:10:00,40.5,13.5,27.53,ESE,113,1.6,1.6,33,0.00,,,0.00,WUHU216HW,2013-02-28 08:10:00,
2013-02-28 01:15:00,40.5,13.5,27.53,SE,135,0.9,2.0,33,0.00,,,0.00,WUHU216HW,2013-02-28 08:15:00,
2013-02-28 01:20:00,40.7,13.7,27.53,ESE,113,1.8,2.0,33,0.00,,,0.00,WUHU216HW,2013-02-28 08:20:00,
2013-02-28 01:25:00,40.5,13.5,27.53,ESE,113,1.6,2.0,33,0.00,,,0.00,WUHU216HW,2013-02-28 08:25:00,
2013-02-28 01:30:00,40.3,14.7,27.53,ESE,113,0.4,2.5,35,0.00,,,0.00,WUHU216HW,2013-02-28 08:30:00,
2013-02-28 01:35:00,40.0,14.3,27.53,SE,135,0.2,2.7,35,0.00,,,0.00,WUHU216HW,2013-02-28 08:35:00,
2013-02-28 01:40:00,39.6,14.1,27.53,ESE,113,0.0,2.7,35,0.00,,,0.00,WUHU216HW,2013-02-28 08:40:00,
2013-02-28 01:45:00,39.2,13.7,27.53,ENE,68,0.7,1.1,35,0.00,,,0.00,WUHU216HW,2013-02-28 08:45:00,
2013-02-28 01:50:00,39.1,13.5,27.53,ENE,68,0.9,1.1,35,0.00,,,0.00,WUHU216HW,2013-02-28 08:50:00,
2013-02-28 01:55:00,38.5,13.1,27.53,ENE,68,0.0,0.9,35,0.00,,,0.00,WUHU216HW,2013-02-28 08:55:00,
2013-02-28 02:00:00,38.3,13.5,27.53,ESE,113,1.6,1.6,36,0.00,,,0.00,WUHU216HW,2013-02-28 09:00:00,
2013-02-28 02:05:00,38.3,14.1,27.53,ENE,68,1.1,1.6,37,0.00,,,0.00,WUHU216HW,2013-02-28 09:05:00,
2013-02-28 02:10:00,38.2,14.1,27.53,East,90,0.7,1.6,37,0.00,,,0.00,WUHU216HW,2013-02-28 09:10:00,
2013-02-28 02:15:00,37.8,14.3,27.54,NE,45,0.9,1.6,38,0.00,,,0.00,WUHU216HW,2013-02-28 09:15:00,
2013-02-28 02:20:00,37.8,14.9,27.53,East,90,1.3,1.6,39,0.00,,,0.00,WUHU216HW,2013-02-28 09:20:00,
2013-02-28 02:25:00,37.8,14.9,27.53,ESE,113,1.3,2.5,39,0.00,,,0.00,WUHU216HW,2013-02-28 09:25:00,
2013-02-28 02:30:00,37.6,14.9,27.53,East,90,1.1,2.5,39,0.00,,,0.00,WUHU216HW,2013-02-28 09:30:00,
2013-02-28 02:35:00,37.4,14.7,27.53,East,90,0.2,1.6,39,0.00,,,0.00,WUHU216HW,2013-02-28 09:35:00,
2013-02-28 02:40:00,37.4,14.7,27.53,East,90,0.7,1.6,39,0.00,,,0.00,WUHU216HW,2013-02-28 09:40:00,
2013-02-28 02:45:00,37.3,14.5,27.53,ESE,113,0.4,1.6,39,0.00,,,0.00,WUHU216HW,2013-02-28 09:45:00,
2013-02-28 02:50:00,37.3,15.1,27.53,ESE,113,0.7,1.6,40,0.00,,,0.00,WUHU216HW,2013-02-28 09:50:00,
2013-02-28 02:55:00,37.1,14.3,27.53,East,90,0.0,2.2,39,0.00,,,0.00,WUHU216HW,2013-02-28 09:55:00,
2013-02-28 03:00:00,37.1,14.3,27.53,East,90,1.1,2.2,39,0.00,,,0.00,WUHU216HW,2013-02-28 10:00:00,
2013-02-28 03:05:00,37.1,14.3,27.53,East,90,0.7,2.5,39,0.00,,,0.00,WUHU216HW,2013-02-28 10:05:00,
2013-02-28 03:10:00,37.1,14.3,27.53,ESE,113,0.4,2.5,39,0.00,,,0.00,WUHU216HW,2013-02-28 10:10:00,
2013-02-28 03:15:00,36.9,14.1,27.53,East,90,0.9,1.6,39,0.00,,,0.00,WUHU216HW,2013-02-28 10:15:00,
2013-02-28 03:20:00,36.9,14.9,27.53,ENE,68,0.2,1.8,40,0.00,,,0.00,WUHU216HW,2013-02-28 10:20:00,
2013-02-28 03:25:00,36.7,14.7,27.53,ESE,113,1.1,1.8,40,0.00,,,0.00,WUHU216HW,2013-02-28 10:25:00,
2013-02-28 03:30:00,36.7,14.7,27.53,ESE,113,1.3,1.8,40,0.00,,,0.00,WUHU216HW,2013-02-28 10:30:00,
2013-02-28 03:35:00,36.7,14.7,27.53,East,90,0.4,2.0,40,0.00,,,0.00,WUHU216HW,2013-02-28 10:35:00,
2013-02-28 03:40:00,36.9,14.9,27.53,ESE,113,1.8,2.7,40,0.00,,,0.00,WUHU216HW,2013-02-28 10:40:00,
2013-02-28 03:45:00,36.9,14.9,27.53,East,90,0.4,2.7,40,0.00,,,0.00,WUHU216HW,2013-02-28 10:45:00,
2013-02-28 03:50:00,36.7,14.7,27.53,ESE,113,0.4,1.8,40,0.00,,,0.00,WUHU216HW,2013-02-28 10:50:00,
2013-02-28 03:55:00,36.5,14.5,27.53,ESE,113,0.7,1.1,40,0.00,,,0.00,WUHU216HW,2013-02-28 10:55:00,
2013-02-28 04:00:00,36.5,14.5,27.53,ESE,113,0.9,1.3,40,0.00,,,0.00,WUHU216HW,2013-02-28 11:00:00,
2013-02-28 04:05:00,36.4,14.3,27.53,East,90,0.9,1.3,40,0.00,,,0.00,WUHU216HW,2013-02-28 11:05:00,
2013-02-28 04:10:00,36.4,14.3,27.53,East,90,1.6,1.8,40,0.00,,,0.00,WUHU216HW,2013-02-28 11:10:00,
2013-02-28 04:15:00,36.4,14.3,27.53,ENE,68,1.1,1.8,40,0.00,,,0.00,WUHU216HW,2013-02-28 11:15:00,
2013-02-28 04:20:00,36.0,14.1,27.53,ENE,68,1.3,1.8,40,0.00,,,0.00,WUHU216HW,2013-02-28 11:20:00,
2013-02-28 04:25:00,35.8,14.4,27.53,East,90,1.1,1.6,41,0.00,,,0.00,WUHU216HW,2013-02-28 11:25:00,
2013-02-28 04:30:00,35.6,14.2,27.53,ESE,113,1.1,1.8,41,0.00,,,0.00,WUHU216HW,2013-02-28 11:30:00,
2013-02-28 04:35:00,35.6,14.8,27.53,ESE,113,0.4,1.8,42,0.00,,,0.00,WUHU216HW,2013-02-28 11:35:00,
2013-02-28 04:40:00,35.6,14.2,27.54,ESE,113,0.0,1.1,41,0.00,,,0.00,WUHU216HW,2013-02-28 11:40:00,
2013-02-28 04:45:00,35.6,14.2,27.54,ESE,113,0.0,0.9,41,0.00,,,0.00,WUHU216HW,2013-02-28 11:45:00,
2013-02-28 04:50:00,35.6,14.2,27.54,ESE,113,0.0,0.9,41,0.00,,,0.00,WUHU216HW,2013-02-28 11:50:00,
2013-02-28 04:55:00,35.5,14.1,27.54,ESE,113,0.0,0.4,41,0.00,,,0.00,WUHU216HW,2013-02-28 11:55:00,
2013-02-28 05:00:00,35.5,14.1,27.55,ESE,113,0.7,0.9,41,0.00,,,0.00,WUHU216HW,2013-02-28 12:00:00,
2013-02-28 05:05:00,35.5,14.6,27.55,ENE,68,0.4,1.6,42,0.00,,,0.00,WUHU216HW,2013-02-28 12:05:00,
2013-02-28 05:10:00,35.6,14.2,27.55,ENE,68,0.4,2.0,41,0.00,,,0.00,WUHU216HW,2013-02-28 12:10:00,
2013-02-28 05:15:00,35.6,14.2,27.54,ESE,113,1.8,2.0,41,0.00,,,0.00,WUHU216HW,2013-02-28 12:15:00,
2013-02-28 05:20:00,35.5,14.6,27.55,ENE,68,0.0,1.8,42,0.00,,,0.00,WUHU216HW,2013-02-28 12:20:00,
2013-02-28 05:25:00,35.3,14.4,27.55,East,90,0.0,1.3,42,0.00,,,0.00,WUHU216HW,2013-02-28 12:25:00,
2013-02-28 05:30:00,35.3,14.4,27.55,ESE,113,1.3,1.3,42,0.00,,,0.00,WUHU216HW,2013-02-28 12:30:00,
2013-02-28 05:35:00,35.3,13.9,27.55,ENE,68,0.0,1.3,41,0.00,,,0.00,WUHU216HW,2013-02-28 12:35:00,
2013-02-28 05:40:00,34.9,14.0,27.55,ENE,68,0.0,1.3,42,0.00,,,0.00,WUHU216HW,2013-02-28 12:40:00,
2013-02-28 05:45:00,34.7,13.9,27.56,ESE,113,0.4,0.7,42,0.00,,,0.00,WUHU216HW,2013-02-28 12:45:00,
2013-02-28 05:50:00,34.9,14.0,27.56,ESE,113,0.0,0.7,42,0.00,,,0.00,WUHU216HW,2013-02-28 12:50:00,
2013-02-28 05:55:00,34.7,13.4,27.56,East,90,0.0,0.7,41,0.00,,,0.00,WUHU216HW,2013-02-28 12:55:00,
2013-02-28 06:00:00,34.6,13.2,27.56,East,90,0.4,0.4,41,0.00,,,0.00,WUHU216HW,2013-02-28 13:00:00,
2013-02-28 06:05:00,34.4,13.1,27.56,East,90,0.0,0.4,41,0.00,,,0.00,WUHU216HW,2013-02-28 13:05:00,
2013-02-28 06:10:00,34.2,12.9,27.56,ESE,113,0.0,0.9,41,0.00,,,0.00,WUHU216HW,2013-02-28 13:10:00,
2013-02-28 06:15:00,34.0,13.2,27.56,East,90,0.0,0.9,42,0.00,,,0.00,WUHU216HW,2013-02-28 13:15:00,
2013-02-28 06:20:00,34.0,13.2,27.56,East,90,0.0,0.4,42,0.00,,,0.00,WUHU216HW,2013-02-28 13:20:00,
2013-02-28 06:25:00,33.7,12.9,27.57,SE,135,0.0,0.0,42,0.00,,,0.00,WUHU216HW,2013-02-28 13:25:00,
2013-02-28 06:30:00,33.5,12.8,27.57,SE,135,0.0,0.0,42,0.00,,,0.00,WUHU216HW,2013-02-28 13:30:00,
2013-02-28 06:35:00,33.5,13.2,27.57,ENE,68,0.0,0.4,43,0.00,,,0.00,WUHU216HW,2013-02-28 13:35:00,
2013-02-28 06:40:00,33.3,13.1,27.57,ENE,68,0.0,0.4,43,0.00,,,0.00,WUHU216HW,2013-02-28 13:40:00,
2013-02-28 06:45:00,33.1,13.0,27.57,ENE,68,0.0,0.2,43,0.00,,,0.00,WUHU216HW,2013-02-28 13:45:00,
2013-02-28 06:50:00,32.8,13.2,27.57,ENE,68,0.0,0.0,44,0.00,,,0.00,WUHU216HW,2013-02-28 13:50:00,
2013-02-28 06:55:00,32.8,12.6,27.57,ENE,68,0.0,0.0,43,0.00,,,0.00,WUHU216HW,2013-02-28 13:55:00,
2013-02-28 07:00:00,32.6,13.0,27.57,ENE,68,0.0,0.0,44,0.00,,,0.00,WUHU216HW,2013-02-28 14:00:00,
2013-02-28 07:05:00,32.8,13.6,27.58,South,180,0.4,0.4,45,0.00,,,0.00,WUHU216HW,2013-02-28 14:05:00,
2013-02-28 07:10:00,33.5,14.2,27.58,SE,135,0.7,0.9,45,0.00,,,0.00,WUHU216HW,2013-02-28 14:10:00,
2013-02-28 07:15:00,33.7,14.0,27.59,SE,135,0.0,0.9,44,0.00,,,0.00,WUHU216HW,2013-02-28 14:15:00,
2013-02-28 07:20:00,33.8,14.0,27.59,SE,135,0.0,0.7,44,0.00,,,0.00,WUHU216HW,2013-02-28 14:20:00,
2013-02-28 07:25:00,34.2,14.4,27.59,SE,135,0.4,1.1,44,0.00,,,0.00,WUHU216HW,2013-02-28 14:25:00,
2013-02-28 07:30:00,34.4,14.0,27.59,SE,135,0.0,1.8,43,0.00,,,0.00,WUHU216HW,2013-02-28 14:30:00,
2013-02-28 07:35:00,34.9,14.6,27.59,ESE,113,1.3,2.5,43,0.00,,,0.00,WUHU216HW,2013-02-28 14:35:00,
2013-02-28 07:40:00,35.3,15.0,27.59,SE,135,1.1,2.5,43,0.00,,,0.00,WUHU216HW,2013-02-28 14:40:00,
2013-02-28 07:45:00,35.6,14.8,27.59,ESE,113,1.3,2.5,42,0.00,,,0.00,WUHU216HW,2013-02-28 14:45:00,
2013-02-28 07:50:00,36.2,15.2,27.60,SE,135,2.9,3.1,42,0.00,,,0.00,WUHU216HW,2013-02-28 14:50:00,
2013-02-28 07:55:00,36.9,15.3,27.60,SE,135,2.0,3.4,41,0.00,,,0.00,WUHU216HW,2013-02-28 14:55:00,
2013-02-28 08:00:00,37.3,15.1,27.60,ENE,68,1.1,3.4,40,0.00,,,0.00,WUHU216HW,2013-02-28 15:00:00,
2013-02-28 08:05:00,37.6,15.5,27.61,ESE,113,0.7,3.4,40,0.00,,,0.00,WUHU216HW,2013-02-28 15:05:00,
2013-02-28 08:10:00,37.8,15.7,27.61,ESE,113,0.9,2.0,40,0.00,,,0.00,WUHU216HW,2013-02-28 15:10:00,
2013-02-28 08:15:00,38.2,15.9,27.61,East,90,0.9,1.8,40,0.00,,,0.00,WUHU216HW,2013-02-28 15:15:00,
2013-02-28 08:20:00,38.7,15.8,27.61,ESE,113,1.1,2.9,39,0.00,,,0.00,WUHU216HW,2013-02-28 15:20:00,
2013-02-28 08:25:00,39.6,16.6,27.61,ENE,68,2.5,2.9,39,0.00,,,0.00,WUHU216HW,2013-02-28 15:25:00,
2013-02-28 08:30:00,40.3,16.6,27.61,SE,135,1.1,2.9,38,0.00,,,0.00,WUHU216HW,2013-02-28 15:30:00,
2013-02-28 08:35:00,41.0,16.6,27.61,ESE,113,0.4,2.9,37,0.00,,,0.00,WUHU216HW,2013-02-28 15:35:00,
2013-02-28 08:40:00,41.8,17.2,27.61,SE,135,2.5,2.5,37,0.00,,,0.00,WUHU216HW,2013-02-28 15:40:00,
2013-02-28 08:45:00,42.5,17.2,27.61,ENE,68,0.7,3.1,36,0.00,,,0.00,WUHU216HW,2013-02-28 15:45:00,
2013-02-28 08:50:00,43.2,15.9,27.61,ENE,68,2.2,3.1,33,0.00,,,0.00,WUHU216HW,2013-02-28 15:50:00,
2013-02-28 08:55:00,43.9,16.5,27.61,East,90,3.4,4.7,33,0.00,,,0.00,WUHU216HW,2013-02-28 15:55:00,
2013-02-28 09:00:00,45.0,16.7,27.61,East,90,3.1,4.7,32,0.00,,,0.00,WUHU216HW,2013-02-28 16:00:00,
2013-02-28 09:05:00,45.4,16.5,27.62,East,90,1.6,4.7,31,0.00,,,0.00,WUHU216HW,2013-02-28 16:05:00,
2013-02-28 09:10:00,45.9,16.3,27.62,East,90,2.5,3.4,30,0.00,,,0.00,WUHU216HW,2013-02-28 16:10:00,
2013-02-28 09:15:00,46.4,16.7,27.62,ESE,113,0.7,3.4,30,0.00,,,0.00,WUHU216HW,2013-02-28 16:15:00,
2013-02-28 09:20:00,46.6,16.9,27.62,NE,45,1.1,2.9,30,0.00,,,0.00,WUHU216HW,2013-02-28 16:20:00,
2013-02-28 09:25:00,46.8,16.1,27.62,WNW,293,0.7,2.2,29,0.00,,,0.00,WUHU216HW,2013-02-28 16:25:00,
2013-02-28 09:30:00,47.0,16.3,27.62,ENE,68,0.9,2.5,29,0.00,,,0.00,WUHU216HW,2013-02-28 16:30:00,
2013-02-28 09:35:00,47.2,14.6,27.62,South,180,0.4,2.5,27,0.00,,,0.00,WUHU216HW,2013-02-28 16:35:00,
2013-02-28 09:40:00,47.5,15.8,27.62,SE,135,0.2,2.5,28,0.00,,,0.00,WUHU216HW,2013-02-28 16:40:00,
2013-02-28 09:45:00,47.7,16.0,27.62,East,90,0.7,1.1,28,0.00,,,0.00,WUHU216HW,2013-02-28 16:45:00,
2013-02-28 09:50:00,47.9,16.2,27.62,ESE,113,0.9,1.1,28,0.00,,,0.00,WUHU216HW,2013-02-28 16:50:00,
2013-02-28 09:55:00,48.2,16.5,27.62,East,90,1.6,1.8,28,0.00,,,0.00,WUHU216HW,2013-02-28 16:55:00,
2013-02-28 10:00:00,48.6,15.8,27.62,SE,135,1.8,2.5,27,0.00,,,0.00,WUHU216HW,2013-02-28 17:00:00,
2013-02-28 10:05:00,49.1,16.3,27.62,SSW,203,0.2,2.5,27,0.00,,,0.00,WUHU216HW,2013-02-28 17:05:00,
2013-02-28 10:10:00,49.5,16.6,27.62,NW,315,0.0,1.8,27,0.00,,,0.00,WUHU216HW,2013-02-28 17:10:00,
2013-02-28 10:15:00,50.0,15.2,27.62,NW,315,0.0,1.8,25,0.00,,,0.00,WUHU216HW,2013-02-28 17:15:00,
2013-02-28 10:20:00,50.2,17.2,27.61,East,90,0.4,1.8,27,0.00,,,0.00,WUHU216HW,2013-02-28 17:20:00,
2013-02-28 10:25:00,50.6,17.6,27.61,WNW,293,1.1,2.0,27,0.00,,,0.00,WUHU216HW,2013-02-28 17:25:00,
2013-02-28 10:30:00,50.9,15.0,27.61,NW,315,1.6,2.0,24,0.00,,,0.00,WUHU216HW,2013-02-28 17:30:00,
2013-02-28 10:35:00,51.3,15.4,27.61,NNW,338,1.8,2.2,24,0.00,,,0.00,WUHU216HW,2013-02-28 17:35:00,
2013-02-28 10:40:00,51.7,15.7,27.61,WSW,248,0.4,2.2,24,0.00,,,0.00,WUHU216HW,2013-02-28 17:40:00,
2013-02-28 10:45:00,52.0,15.0,27.61,NNW,338,1.1,2.7,23,0.00,,,0.00,WUHU216HW,2013-02-28 17:45:00,
2013-02-28 10:50:00,52.6,14.5,27.61,WNW,293,0.2,3.4,22,0.00,,,0.00,WUHU216HW,2013-02-28 17:50:00,
2013-02-28 10:55:00,54.4,16.0,27.61,NNW,338,1.3,3.4,22,0.00,,,0.00,WUHU216HW,2013-02-28 17:55:00,
2013-02-28 11:00:00,57.8,18.9,27.61,WNW,293,1.8,2.2,22,0.00,,,0.00,WUHU216HW,2013-02-28 18:00:00,
2013-02-28 11:05:00,61.7,21.3,27.61,ESE,113,0.7,2.2,21,0.00,,,0.00,WUHU216HW,2013-02-28 18:05:00,
2013-02-28 11:10:00,64.3,20.8,27.60,NNW,338,0.2,2.2,19,0.00,,,0.00,WUHU216HW,2013-02-28 18:10:00,
2013-02-28 11:15:00,65.7,20.3,27.60,NE,45,1.1,2.2,18,0.00,,,0.00,WUHU216HW,2013-02-28 18:15:00,
2013-02-28 11:20:00,67.3,20.2,27.60,NNW,338,2.2,3.4,17,0.00,,,0.00,WUHU216HW,2013-02-28 18:20:00,
2013-02-28 11:25:00,66.8,18.1,27.60,West,270,1.8,3.4,16,0.00,,,0.00,WUHU216HW,2013-02-28 18:25:00,
2013-02-28 11:30:00,66.8,18.1,27.60,North,0,2.5,2.5,16,0.00,,,0.00,WUHU216HW,2013-02-28 18:30:00,
2013-02-28 11:35:00,67.7,20.4,27.59,NNE,23,2.5,3.1,17,0.00,,,0.00,WUHU216HW,2013-02-28 18:35:00,
2013-02-28 11:40:00,69.1,23.2,27.59,SSE,158,1.1,3.1,18,0.00,,,0.00,WUHU216HW,2013-02-28 18:40:00,
2013-02-28 11:45:00,68.8,19.7,27.59,ESE,113,1.6,2.7,16,0.00,,,0.00,WUHU216HW,2013-02-28 18:45:00,
2013-02-28 11:50:00,67.7,18.8,27.59,North,0,1.1,4.3,16,0.00,,,0.00,WUHU216HW,2013-02-28 18:50:00,
2013-02-28 11:55:00,68.4,22.7,27.59,SE,135,1.1,4.3,18,0.00,,,0.00,WUHU216HW,2013-02-28 18:55:00,
2013-02-28 12:00:00,69.8,20.5,27.59,NNW,338,1.6,2.7,16,0.00,,,0.00,WUHU216HW,2013-02-28 19:00:00,
2013-02-28 12:05:00,69.3,18.5,27.59,WNW,293,2.5,3.4,15,0.00,,,0.00,WUHU216HW,2013-02-28 19:05:00,
2013-02-28 12:10:00,68.0,19.2,27.59,ESE,113,0.4,3.4,16,0.00,,,0.00,WUHU216HW,2013-02-28 19:10:00,
2013-02-28 12:15:00,68.0,19.2,27.59,SE,135,0.4,3.8,16,0.00,,,0.00,WUHU216HW,2013-02-28 19:15:00,
2013-02-28 12:20:00,67.3,16.9,27.58,NNW,338,1.3,3.8,15,0.00,,,0.00,WUHU216HW,2013-02-28 19:20:00,
2013-02-28 12:25:00,67.0,18.2,27.58,WNW,293,1.8,3.4,16,0.00,,,0.00,WUHU216HW,2013-02-28 19:25:00,
2013-02-28 12:30:00,66.1,15.8,27.58,NW,315,4.0,4.0,15,0.00,,,0.00,WUHU216HW,2013-02-28 19:30:00,
2013-02-28 12:35:00,64.8,14.9,27.58,ESE,113,1.1,4.0,15,0.00,,,0.00,WUHU216HW,2013-02-28 19:35:00,
2013-02-28 12:40:00,64.4,16.2,27.57,WNW,293,1.1,3.4,16,0.00,,,0.00,WUHU216HW,2013-02-28 19:40:00,
2013-02-28 12:45:00,64.6,16.3,27.57,ESE,113,0.9,2.9,16,0.00,,,0.00,WUHU216HW,2013-02-28 19:45:00,
2013-02-28 12:50:00,65.5,15.5,27.57,North,0,1.3,3.6,15,0.00,,,0.00,WUHU216HW,2013-02-28 19:50:00,
2013-02-28 12:55:00,66.6,17.9,27.57,ESE,113,3.4,3.6,16,0.00,,,0.00,WUHU216HW,2013-02-28 19:55:00,
2013-02-28 13:00:00,67.1,16.8,27.56,West,270,2.7,3.4,15,0.00,,,0.00,WUHU216HW,2013-02-28 20:00:00,
2013-02-28 13:05:00,66.8,13.3,27.56,NNW,338,3.8,3.8,13,0.00,,,0.00,WUHU216HW,2013-02-28 20:05:00,
2013-02-28 13:10:00,66.6,16.3,27.56,SSE,158,1.1,3.8,15,0.00,,,0.00,WUHU216HW,2013-02-28 20:10:00,
2013-02-28 13:15:00,66.6,13.1,27.56,NW,315,0.4,3.6,13,0.00,,,0.00,WUHU216HW,2013-02-28 20:15:00,
2013-02-28 13:20:00,66.6,13.1,27.56,NW,315,2.0,2.5,13,0.00,,,0.00,WUHU216HW,2013-02-28 20:20:00,
2013-02-28 13:25:00,67.1,18.4,27.55,SSW,203,1.3,2.7,16,0.00,,,0.00,WUHU216HW,2013-02-28 20:25:00,
2013-02-28 13:30:00,68.0,19.2,27.55,ENE,68,3.1,4.0,16,0.00,,,0.00,WUHU216HW,2013-02-28 20:30:00,
2013-02-28 13:35:00,68.6,14.8,27.55,NW,315,2.5,4.0,13,0.00,,,0.00,WUHU216HW,2013-02-28 20:35:00,
2013-02-28 13:40:00,68.4,17.8,27.55,NW,315,1.8,3.4,15,0.00,,,0.00,WUHU216HW,2013-02-28 20:40:00,
2013-02-28 13:45:00,68.8,14.9,27.55,WSW,248,2.5,3.8,13,0.00,,,0.00,WUHU216HW,2013-02-28 20:45:00,
2013-02-28 13:50:00,68.6,14.8,27.55,NNW,338,2.9,3.8,13,0.00,,,0.00,WUHU216HW,2013-02-28 20:50:00,
2013-02-28 13:55:00,68.4,13.0,27.55,SSE,158,0.9,3.6,12,0.00,,,0.00,WUHU216HW,2013-02-28 20:55:00,
2013-02-28 14:00:00,67.3,13.8,27.55,WNW,293,1.8,3.4,13,0.00,,,0.00,WUHU216HW,2013-02-28 21:00:00,
2013-02-28 14:05:00,67.7,12.4,27.55,WNW,293,1.1,4.5,12,0.00,,,0.00,WUHU216HW,2013-02-28 21:05:00,
2013-02-28 14:10:00,67.1,13.6,27.56,WNW,293,0.9,4.5,13,0.00,,,0.00,WUHU216HW,2013-02-28 21:10:00,
2013-02-28 14:15:00,67.0,11.9,27.55,West,270,3.4,4.0,12,0.00,,,0.00,WUHU216HW,2013-02-28 21:15:00,
2013-02-28 14:20:00,66.6,13.1,27.55,WNW,293,3.1,3.4,13,0.00,,,0.00,WUHU216HW,2013-02-28 21:20:00,
2013-02-28 14:25:00,66.6,11.5,27.55,NNW,338,1.1,4.0,12,0.00,,,0.00,WUHU216HW,2013-02-28 21:25:00,
2013-02-28 14:30:00,67.0,13.4,27.55,North,0,1.1,4.0,13,0.00,,,0.00,WUHU216HW,2013-02-28 21:30:00,
2013-02-28 14:35:00,67.3,13.8,27.55,SW,225,1.3,3.8,13,0.00,,,0.00,WUHU216HW,2013-02-28 21:35:00,
2013-02-28 14:40:00,67.3,12.2,27.55,NNW,338,2.2,3.8,12,0.00,,,0.00,WUHU216HW,2013-02-28 21:40:00,
2013-02-28 14:45:00,67.7,14.0,27.55,ESE,113,2.9,3.4,13,0.00,,,0.00,WUHU216HW,2013-02-28 21:45:00,
2013-02-28 14:50:00,68.8,16.5,27.55,NW,315,1.8,2.9,14,0.00,,,0.00,WUHU216HW,2013-02-28 21:50:00,
2013-02-28 14:56:00,68.9,11.8,27.55,NW,315,5.4,5.4,11,0.00,,,0.00,WUHU216HW,2013-02-28 21:56:00,
2013-02-28 15:00:00,68.0,12.8,27.55,NW,315,1.6,5.4,12,0.00,,,0.00,WUHU216HW,2013-02-28 22:00:00,
2013-02-28 15:05:00,68.4,13.0,27.55,SW,225,2.5,5.4,12,0.00,,,0.00,WUHU216HW,2013-02-28 22:05:00,
2013-02-28 15:11:00,68.6,13.2,27.55,WNW,293,1.6,3.4,12,0.00,,,0.00,WUHU216HW,2013-02-28 22:11:00,
2013-02-28 15:16:00,68.8,11.6,27.55,NW,315,5.6,5.6,11,0.00,,,0.00,WUHU216HW,2013-02-28 22:16:00,
2013-02-28 15:21:00,67.9,12.6,27.55,North,0,2.5,5.6,12,0.00,,,0.00,WUHU216HW,2013-02-28 22:21:00,
2013-02-28 15:26:00,68.0,12.8,27.55,NW,315,2.7,5.6,12,0.00,,,0.00,WUHU216HW,2013-02-28 22:26:00,
2013-02-28 15:31:00,68.0,12.8,27.55,West,270,2.0,4.7,12,0.00,,,0.00,WUHU216HW,2013-02-28 22:31:00,
2013-02-28 15:36:00,68.0,11.2,27.55,West,270,2.0,4.7,11,0.00,,,0.00,WUHU216HW,2013-02-28 22:36:00,
2013-02-28 15:41:00,67.9,11.0,27.55,SSE,158,2.0,5.1,11,0.00,,,0.00,WUHU216HW,2013-02-28 22:41:00,
2013-02-28 15:46:00,67.5,12.3,27.55,NW,315,3.8,5.1,12,0.00,,,0.00,WUHU216HW,2013-02-28 22:46:00,
2013-02-28 15:51:00,67.5,12.3,27.55,SSW,203,2.2,4.7,12,0.00,,,0.00,WUHU216HW,2013-02-28 22:51:00,
2013-02-28 15:56:00,67.9,12.6,27.55,NW,315,1.8,5.4,12,0.00,,,0.00,WUHU216HW,2013-02-28 22:56:00,
2013-02-28 16:01:00,68.0,12.8,27.55,WSW,248,1.8,5.4,12,0.00,,,0.00,WUHU216HW,2013-02-28 23:01:00,
2013-02-28 16:06:00,68.0,12.8,27.55,WNW,293,5.6,5.6,12,0.00,,,0.00,WUHU216HW,2013-02-28 23:06:00,
2013-02-28 16:11:00,68.0,12.8,27.55,WNW,293,2.9,5.6,12,0.00,,,0.00,WUHU216HW,2013-02-28 23:11:00,
2013-02-28 16:16:00,67.5,12.3,27.55,NNW,338,2.7,5.6,12,0.00,,,0.00,WUHU216HW,2013-02-28 23:16:00,
2013-02-28 16:21:00,67.7,12.4,27.55,West,270,2.9,5.1,12,0.00,,,0.00,WUHU216HW,2013-02-28 23:21:00,
2013-02-28 16:26:00,68.0,12.8,27.55,WSW,248,2.0,4.5,12,0.00,,,0.00,WUHU216HW,2013-02-28 23:26:00,
2013-02-28 16:31:00,67.9,12.6,27.55,West,270,2.7,4.9,12,0.00,,,0.00,WUHU216HW,2013-02-28 23:31:00,
2013-02-28 16:36:00,67.7,12.4,27.55,NNE,23,1.8,4.9,12,0.00,,,0.00,WUHU216HW,2013-02-28 23:36:00,
2013-02-28 16:41:00,67.9,14.2,27.55,WNW,293,3.6,4.5,13,0.00,,,0.00,WUHU216HW,2013-02-28 23:41:00,
2013-02-28 16:46:00,68.0,14.3,27.54,NW,315,3.4,5.6,13,0.00,,,0.00,WUHU216HW,2013-02-28 23:46:00,
2013-02-28 16:51:00,67.3,13.8,27.54,WNW,293,3.8,5.6,13,0.00,,,0.00,WUHU216HW,2013-02-28 23:51:00,
2013-02-28 16:56:00,67.3,13.8,27.55,West,270,1.3,5.4,13,0.00,,,0.00,WUHU216HW,2013-02-28 23:56:00,
2013-02-28 17:01:00,67.3,13.8,27.54,WNW,293,3.1,6.3,13,0.00,,,0.00,WUHU216HW,2013-03-01 00:01:00,
2013-02-28 17:06:00,67.1,12.0,27.55,NW,315,2.5,6.3,12,0.00,,,0.00,WUHU216HW,2013-03-01 00:06:00,
2013-02-28 17:11:00,67.1,13.6,27.54,SW,225,2.0,5.4,13,0.00,,,0.00,WUHU216HW,2013-03-01 00:11:00,
2013-02-28 17:16:00,67.0,13.4,27.54,WNW,293,3.4,5.4,13,0.00,,,0.00,WUHU216HW,2013-03-01 00:16:00,
2013-02-28 17:21:00,66.8,13.3,27.54,West,270,2.9,4.7,13,0.00,,,0.00,WUHU216HW,2013-03-01 00:21:00,
2013-02-28 17:26:00,66.6,16.3,27.55,NW,315,2.9,5.8,15,0.00,,,0.00,WUHU216HW,2013-03-01 00:26:00,
2013-02-28 17:31:00,66.4,13.0,27.55,NNW,338,2.5,5.8,13,0.00,,,0.00,WUHU216HW,2013-03-01 00:31:00,
2013-02-28 17:36:00,66.2,16.0,27.55,WSW,248,1.8,4.0,15,0.00,,,0.00,WUHU216HW,2013-03-01 00:36:00,
2013-02-28 17:41:00,66.1,12.7,27.55,WNW,293,2.0,4.0,13,0.00,,,0.00,WUHU216HW,2013-03-01 00:41:00,
2013-02-28 17:46:00,65.9,12.6,27.55,West,270,3.1,4.9,13,0.00,,,0.00,WUHU216HW,2013-03-01 00:46:00,
2013-02-28 17:51:00,65.7,15.6,27.55,WNW,293,1.3,4.9,15,0.00,,,0.00,WUHU216HW,2013-03-01 00:51:00,
2013-02-28 17:56:00,65.3,15.3,27.55,WNW,293,2.5,4.3,15,0.00,,,0.00,WUHU216HW,2013-03-01 00:56:00,
2013-02-28 18:01:00,65.2,12.0,27.56,WSW,248,2.2,4.3,13,0.00,,,0.00,WUHU216HW,2013-03-01 01:01:00,
2013-02-28 18:06:00,64.8,13.3,27.56,NW,315,1.8,4.0,14,0.00,,,0.00,WUHU216HW,2013-03-01 01:06:00,
2013-02-28 18:11:00,64.4,14.6,27.56,WNW,293,2.0,3.4,15,0.00,,,0.00,WUHU216HW,2013-03-01 01:11:00,
2013-02-28 18:16:00,63.7,14.0,27.56,SW,225,3.8,5.8,15,0.00,,,0.00,WUHU216HW,2013-03-01 01:16:00,
2013-02-28 18:21:00,63.0,13.5,27.56,WNW,293,3.4,5.8,15,0.00,,,0.00,WUHU216HW,2013-03-01 01:21:00,
2013-02-28 18:26:00,62.5,14.7,27.57,SW,225,3.4,6.9,16,0.00,,,0.00,WUHU216HW,2013-03-01 01:26:00,
2013-02-28 18:31:00,61.9,14.2,27.57,West,270,4.0,6.9,16,0.00,,,0.00,WUHU216HW,2013-03-01 01:31:00,
2013-02-28 18:36:00,61.6,14.0,27.57,NNE,23,3.8,6.7,16,0.00,,,0.00,WUHU216HW,2013-03-01 01:36:00,
2013-02-28 18:41:00,61.0,13.5,27.57,WNW,293,2.9,5.4,16,0.00,,,0.00,WUHU216HW,2013-03-01 01:41:00,
2013-02-28 18:46:00,60.7,14.8,27.57,SW,225,4.0,5.4,17,0.00,,,0.00,WUHU216HW,2013-03-01 01:46:00,
2013-02-28 18:51:00,60.3,14.5,27.57,WSW,248,4.3,6.0,17,0.00,,,0.00,WUHU216HW,2013-03-01 01:51:00,
2013-02-28 18:56:00,60.1,14.3,27.57,West,270,4.0,6.0,17,0.00,,,0.00,WUHU216HW,2013-03-01 01:56:00,
2013-02-28 19:01:00,59.8,14.0,27.57,WSW,248,3.1,5.6,17,0.00,,,0.00,WUHU216HW,2013-03-01 02:01:00,
2013-02-28 19:06:00,59.6,13.9,27.58,WSW,248,4.0,5.6,17,0.00,,,0.00,WUHU216HW,2013-03-01 02:06:00,
2013-02-28 19:11:00,59.2,13.5,27.58,NNW,338,3.4,4.5,17,0.00,,,0.00,WUHU216HW,2013-03-01 02:11:00,
2013-02-28 19:16:00,59.0,15.0,27.58,WNW,293,4.5,5.1,18,0.00,,,0.00,WUHU216HW,2013-03-01 02:16:00,
2013-02-28 19:21:00,58.9,13.2,27.58,WSW,248,3.8,5.1,17,0.00,,,0.00,WUHU216HW,2013-03-01 02:21:00,
2013-02-28 19:26:00,58.7,13.1,27.58,WSW,248,3.6,5.4,17,0.00,,,0.00,WUHU216HW,2013-03-01 02:26:00,
2013-02-28 19:31:00,58.3,12.8,27.58,WSW,248,4.7,6.0,17,0.00,,,0.00,WUHU216HW,2013-03-01 02:31:00,
2013-02-28 19:36:00,58.1,12.6,27.58,WNW,293,3.1,6.3,17,0.00,,,0.00,WUHU216HW,2013-03-01 02:36:00,
2013-02-28 19:41:00,58.0,12.5,27.58,NW,315,2.7,6.3,17,0.00,,,0.00,WUHU216HW,2013-03-01 02:41:00,
2013-02-28 19:46:00,58.0,12.5,27.58,WSW,248,2.2,6.0,17,0.00,,,0.00,WUHU216HW,2013-03-01 02:46:00,
2013-02-28 19:51:00,57.8,12.3,27.59,WSW,248,3.8,5.8,17,0.00,,,0.00,WUHU216HW,2013-03-01 02:51:00,
2013-02-28 19:56:00,57.8,12.3,27.59,NW,315,4.0,5.8,17,0.00,,,0.00,WUHU216HW,2013-03-01 02:56:00,
2013-02-28 20:01:00,57.4,13.6,27.59,NW,315,2.9,5.4,18,0.00,,,0.00,WUHU216HW,2013-03-01 03:01:00,
2013-02-28 20:06:00,57.2,13.5,27.59,WSW,248,1.8,4.7,18,0.00,,,0.00,WUHU216HW,2013-03-01 03:06:00,
2013-02-28 20:11:00,57.1,13.3,27.59,West,270,2.0,4.7,18,0.00,,,0.00,WUHU216HW,2013-03-01 03:11:00,
2013-02-28 20:16:00,56.9,13.1,27.59,SSE,158,1.3,4.7,18,0.00,,,0.00,WUHU216HW,2013-03-01 03:16:00,
2013-02-28 20:21:00,56.5,12.9,27.60,NW,315,3.4,4.7,18,0.00,,,0.00,WUHU216HW,2013-03-01 03:21:00,
2013-02-28 20:26:00,56.3,15.8,27.60,NW,315,3.8,4.9,20,0.00,,,0.00,WUHU216HW,2013-03-01 03:26:00,
2013-02-28 20:31:00,56.2,15.7,27.60,NNE,23,1.3,4.9,20,0.00,,,0.00,WUHU216HW,2013-03-01 03:31:00,
2013-02-28 20:36:00,55.8,15.4,27.60,West,270,0.9,3.8,20,0.00,,,0.00,WUHU216HW,2013-03-01 03:36:00,
2013-02-28 20:41:00,55.6,15.3,27.60,WSW,248,2.9,2.9,20,0.00,,,0.00,WUHU216HW,2013-03-01 03:41:00,
2013-02-28 20:46:00,55.4,15.1,27.60,NW,315,1.8,2.9,20,0.00,,,0.00,WUHU216HW,2013-03-01 03:46:00,
2013-02-28 20:51:00,55.1,15.8,27.59,West,270,0.2,3.8,21,0.00,,,0.00,WUHU216HW,2013-03-01 03:51:00,
2013-02-28 20:56:00,54.7,15.4,27.59,SW,225,0.4,3.8,21,0.00,,,0.00,WUHU216HW,2013-03-01 03:56:00,
2013-02-28 21:01:00,54.4,15.1,27.59,WNW,293,0.4,1.8,21,0.00,,,0.00,WUHU216HW,2013-03-01 04:01:00,
2013-02-28 21:06:00,54.2,15.0,27.60,WNW,293,0.9,1.8,21,0.00,,,0.00,WUHU216HW,2013-03-01 04:06:00,
2013-02-28 21:11:00,54.0,14.8,27.60,West,270,0.0,1.8,21,0.00,,,0.00,WUHU216HW,2013-03-01 04:11:00,
2013-02-28 21:16:00,53.6,14.5,27.61,SE,135,0.4,1.1,21,0.00,,,0.00,WUHU216HW,2013-03-01 04:16:00,
2013-02-28 21:21:00,53.3,15.1,27.61,ESE,113,0.7,1.8,22,0.00,,,0.00,WUHU216HW,2013-03-01 04:21:00,
2013-02-28 21:26:00,52.9,14.9,27.62,SE,135,0.2,2.0,22,0.00,,,0.00,WUHU216HW,2013-03-01 04:26:00,
2013-02-28 21:31:00,52.6,15.5,27.62,West,270,0.0,2.0,23,0.00,,,0.00,WUHU216HW,2013-03-01 04:31:00,
2013-02-28 21:36:00,52.4,14.4,27.62,WNW,293,0.0,1.1,22,0.00,,,0.00,WUHU216HW,2013-03-01 04:36:00,
2013-02-28 21:41:00,52.4,15.3,27.62,ESE,113,0.7,1.1,23,0.00,,,0.00,WUHU216HW,2013-03-01 04:41:00,
2013-02-28 21:46:00,52.2,15.2,27.62,SE,135,0.4,1.6,23,0.00,,,0.00,WUHU216HW,2013-03-01 04:46:00,
2013-02-28 21:51:00,52.0,15.0,27.62,SSE,158,0.2,1.6,23,0.00,,,0.00,WUHU216HW,2013-03-01 04:51:00,
2013-02-28 21:56:00,51.7,14.8,27.62,SE,135,0.2,1.1,23,0.00,,,0.00,WUHU216HW,2013-03-01 04:56:00,
2013-02-28 22:00:00,51.5,14.6,27.62,SE,135,0.4,1.1,23,0.00,,,0.00,WUHU216HW,2013-03-01 05:00:00,
2013-02-28 22:05:00,51.1,15.2,27.63,SE,135,0.4,0.7,24,0.00,,,0.00,WUHU216HW,2013-03-01 05:05:00,
2013-02-28 22:06:00,51.1,15.2,27.63,SE,135,0.2,0.7,24,0.00,,,0.00,WUHU216HW,2013-03-01 05:06:00,
2013-02-28 22:11:00,50.9,15.0,27.64,SSE,158,0.0,0.4,24,0.00,,,0.00,WUHU216HW,2013-03-01 05:11:00,
2013-02-28 22:16:00,50.6,14.8,27.63,SE,135,0.4,0.4,24,0.00,,,0.00,WUHU216HW,2013-03-01 05:16:00,
2013-02-28 22:21:00,50.2,15.4,27.63,SE,135,0.9,0.9,25,0.00,,,0.00,WUHU216HW,2013-03-01 05:21:00,
2013-02-28 22:26:00,50.0,15.2,27.63,SE,135,1.1,1.1,25,0.00,,,0.00,WUHU216HW,2013-03-01 05:26:00,
2013-02-28 22:31:00,49.7,15.0,27.63,SE,135,0.0,1.1,25,0.00,,,0.00,WUHU216HW,2013-03-01 05:31:00,
2013-02-28 22:36:00,49.5,14.8,27.64,ESE,113,0.4,1.1,25,0.00,,,0.00,WUHU216HW,2013-03-01 05:36:00,
2013-02-28 22:41:00,49.3,14.6,27.64,SE,135,0.4,1.1,25,0.00,,,0.00,WUHU216HW,2013-03-01 05:41:00,
2013-02-28 22:46:00,49.1,15.4,27.64,SE,135,1.1,1.1,26,0.00,,,0.00,WUHU216HW,2013-03-01 05:46:00,
2013-02-28 22:51:00,49.0,14.3,27.63,East,90,0.9,1.8,25,0.00,,,0.00,WUHU216HW,2013-03-01 05:51:00,
2013-02-28 22:56:00,48.8,15.0,27.63,SE,135,1.6,2.2,26,0.00,,,0.00,WUHU216HW,2013-03-01 05:56:00,
2013-02-28 23:01:00,48.8,15.0,27.63,SE,135,0.7,2.5,26,0.00,,,0.00,WUHU216HW,2013-03-01 06:01:00,
2013-02-28 23:06:00,48.6,15.8,27.63,ESE,113,0.4,2.5,27,0.00,,,0.00,WUHU216HW,2013-03-01 06:06:00,
2013-02-28 23:11:00,48.1,15.4,27.63,SE,135,1.1,1.6,27,0.00,,,0.00,WUHU216HW,2013-03-01 06:11:00,
2013-02-28 23:16:00,47.9,15.2,27.63,ESE,113,0.4,1.6,27,0.00,,,0.00,WUHU216HW,2013-03-01 06:16:00,
2013-02-28 23:21:00,47.5,15.8,27.63,SSE,158,0.9,1.8,28,0.00,,,0.00,WUHU216HW,2013-03-01 06:21:00,
2013-02-28 23:26:00,47.5,15.8,27.64,SSE,158,0.4,1.8,28,0.00,,,0.00,WUHU216HW,2013-03-01 06:26:00,
2013-02-28 23:31:00,47.5,15.8,27.64,SSE,158,0.2,1.3,28,0.00,,,0.00,WUHU216HW,2013-03-01 06:31:00,
2013-02-28 23:36:00,47.5,15.8,27.64,SE,135,0.4,1.3,28,0.00,,,0.00,WUHU216HW,2013-03-01 06:36:00,
2013-02-28 23:41:00,47.3,15.7,27.64,ESE,113,0.4,0.9,28,0.00,,,0.00,WUHU216HW,2013-03-01 06:41:00,
2013-02-28 23:46:00,47.3,15.7,27.64,ESE,113,0.7,1.1,28,0.00,,,0.00,WUHU216HW,2013-03-01 06:46:00,
2013-02-28 23:51:00,47.2,15.6,27.64,ESE,113,0.0,1.1,28,0.00,,,0.00,WUHU216HW,2013-03-01 06:51:00,
2013-02-28 23:56:00,47.0,15.4,27.64,ENE,68,1.3,1.6,28,0.00,,,0.00,WUHU216HW,2013-03-01 06:56:00,